Tracking 30743 objects as of 21-Jun-2025
HD Live streaming from Space Station
objects crossing your sky now

CZ-4C DEB

Track CZ-4C DEB now!
10-day predictions


NORAD ID: 43421
Int'l Code: 2014-080K
Perigee: 841.1 km
Apogee: 1,357.3 km
Inclination: 63.4 °
Period: 107.1 minutes
Semi major axis: 7470 km
RCS: Unknown
Launch date: December 10, 2014
Source: People's Republic of China (PRC)
Launch site: Jiuquan Satellite Launch Center, China (JSC)

Note: This is SATELLITE DEBRIS
Your satellite tracking list
Your tracking list is empty




NASA's NSSDC Master Catalog

Two Line Element Set (TLE):
1 43421U 14080K   25167.48279904  .00000024  00000-0  13600-3 0  9990
2 43421  63.3872 191.1537 0345499   9.5006 351.2336 13.44642060440007
Source of the keplerian elements: AFSPC